| time (UTC) | temp F | wind direction | speed knots | gust knots | rain 1hr in | rain 24hr in | rain mn in | humidity % | barometer mb |
| 20260831211835 | 77 | 242 | 0.0 | 1.7 | 0.00 | 0.00 | 0.00 | 27 | 1016.6 |
| 20260831210338 | 76 | 196 | 0.0 | 1.7 | 0.00 | 0.00 | 0.00 | 28 | 1016.8 |
| 20260831204856 | 76 | 198 | 0.0 | 1.7 | 0.00 | 0.00 | 0.00 | 28 | 1017.1 |
| 20260831203359 | 75 | 106 | 0.0 | 1.7 | 0.00 | 0.00 | 0.00 | 30 | 1017.2 |
| 20260831201829 | 75 | 87 | 0.0 | 2.6 | 0.00 | 0.00 | 0.00 | 31 | 1017.4 |
| 20260831200341 | 74 | 89 | 0.0 | 1.7 | 0.00 | 0.00 | 0.00 | 31 | 1017.5 |
| 20260831194843 | 74 | 217 | 0.9 | 2.6 | 0.00 | 0.00 | 0.00 | 30 | 1017.7 |
| 20260831193329 | 73 | 144 | 0.0 | 3.5 | 0.00 | 0.00 | 0.00 | 31 | 1017.7 |
| 20260831191853 | 72 | 186 | 0.0 | 1.7 | 0.00 | 0.00 | 0.00 | 33 | 1017.8 |
| 20260831190356 | 72 | 110 | 0.0 | 0.9 | 0.00 | 0.00 | 0.00 | 34 | 1017.9 |
| 20260831184846 | 70 | 298 | 0.0 | 1.7 | 0.00 | 0.00 | 0.00 | 34 | 1017.8 |
| 20260831183328 | 70 | 53 | 0.0 | 2.6 | 0.00 | 0.00 | 0.00 | 36 | 1018.2 |
| 20260831181826 | 70 | 144 | 0.0 | 1.7 | 0.00 | 0.00 | 0.00 | 35 | 1018.3 |
| 20260831180329 | 69 | 311 | 0.0 | 1.7 | 0.00 | 0.00 | 0.00 | 36 | 1018.4 |
| 20260831174837 | 69 | 118 | 0.0 | 2.6 | 0.00 | 0.00 | 0.00 | 38 | 1018.4 |
| 20260831173327 | 68 | 193 | 0.9 | 2.6 | 0.00 | 0.00 | 0.00 | 38 | 1018.5 |
| 20260831171847 | 67 | 5 | 0.0 | 1.7 | 0.00 | 0.00 | 0.00 | 40 | 1018.5 |
| 20260831170334 | 67 | 226 | 0.9 | 2.6 | 0.00 | 0.00 | 0.00 | 38 | 1018.6 |
| 20260831164831 | 67 | 108 | 0.0 | 1.7 | 0.00 | 0.00 | 0.00 | 39 | 1018.6 |
| 20260831163341 | 67 | 65 | 0.0 | 1.7 | 0.00 | 0.00 | 0.00 | 41 | 1018.5 |
| 20260831161844 | 66 | 105 | 0.0 | 1.7 | 0.00 | 0.00 | 0.00 | 40 | 1018.3 |
| 20260831160332 | 64 | 355 | 0.0 | 1.7 | 0.00 | 0.00 | 0.00 | 45 | 1018.4 |
| 20260831154838 | 62 | 344 | 0.0 | 1.7 | 0.00 | 0.00 | 0.00 | 44 | 1018.3 |
| 20260831153335 | 60 | 100 | 0.0 | 1.7 | 0.00 | 0.00 | 0.00 | 58 | 1018.3 |
| 20260831151845 | 56 | 100 | 0.0 | 1.7 | 0.00 | 0.00 | 0.00 | 60 | 1018.3 |
| 20260831150339 | 54 | 129 | 0.0 | 0.0 | 0.00 | 0.00 | 0.00 | 68 | 1018.3 |
| 20260831144830 | 53 | 143 | 0.0 | 0.0 | 0.00 | 0.00 | 0.00 | 66 | 1018.2 |
| 20260831143342 | 52 | 132 | 0.0 | 0.9 | 0.00 | 0.00 | 0.00 | 68 | 1018.2 |
| 20260831141828 | 50 | 126 | 0.0 | 0.0 | 0.00 | 0.00 | 0.00 | 68 | 1017.9 |
| 20260831140332 | 48 | 94 | 0.0 | 0.0 | 0.00 | 0.00 | 0.00 | 72 | 1017.7 |
| 20260831134839 | 46 | 329 | 0.0 | 0.0 | 0.00 | 0.00 | 0.00 | 77 | 1017.6 |
| 20260831133356 | 45 | 160 | 0.0 | 0.0 | 0.00 | 0.00 | 0.00 | 83 | 1017.4 |
| 20260831131832 | 44 | 160 | 0.0 | 0.0 | 0.00 | 0.00 | 0.00 | 84 | 1017.2 |
| 20260831130329 | 44 | 160 | 0.0 | 0.0 | 0.00 | 0.00 | 0.00 | 83 | 1017.1 |
| 20260831124837 | 44 | 160 | 0.0 | 0.0 | 0.00 | 0.00 | 0.00 | 84 | 1016.8 |
| 20260831123335 | 44 | 160 | 0.0 | 0.0 | 0.00 | 0.00 | 0.00 | 83 | 1016.5 |
| 20260831121833 | 44 | 136 | 0.0 | 1.7 | 0.00 | 0.00 | 0.00 | 85 | 1016.5 |
| 20260831120343 | 44 | 134 | 0.0 | 0.0 | 0.00 | 0.00 | 0.00 | 86 | 1016.4 |
| 20260831114829 | 44 | 134 | 0.0 | 1.7 | 0.00 | 0.00 | 0.00 | 87 | 1016.5 |
| 20260831113353 | 44 | 46 | 0.0 | 0.0 | 0.00 | 0.00 | 0.00 | 88 | 1016.4 |
| 20260831111837 | 43 | 318 | 0.0 | 0.0 | 0.00 | 0.00 | 0.00 | 93 | 1016.2 |
| 20260831110332 | 42 | 318 | 0.0 | 0.0 | 0.00 | 0.00 | 0.00 | 92 | 1016.2 |
| 20260831104826 | 42 | 315 | 0.0 | 0.0 | 0.00 | 0.00 | 0.00 | 91 | 1016.2 |
| 20260831103403 | 42 | 306 | 0.0 | 0.0 | 0.00 | 0.00 | 0.00 | 90 | 1015.8 |
| 20260831101839 | 43 | 306 | 0.0 | 0.0 | 0.00 | 0.00 | 0.00 | 91 | 1015.8 |
| 20260831100347 | 43 | 306 | 0.0 | 0.0 | 0.00 | 0.00 | 0.00 | 90 | 1015.4 |
| 20260831094840 | 43 | 306 | 0.0 | 0.0 | 0.00 | 0.00 | 0.00 | 89 | 1015.3 |
| 20260831093356 | 43 | 306 | 0.0 | 0.0 | 0.00 | 0.00 | 0.00 | 87 | 1015.2 |
| 20260831091850 | 44 | 303 | 0.0 | 0.0 | 0.00 | 0.00 | 0.00 | 88 | 1014.8 |
| 20260831090327 | 45 | 286 | 0.0 | 0.0 | 0.00 | 0.00 | 0.00 | 88 | 1014.7 |
| 20260831084857 | 44 | 286 | 0.0 | 0.0 | 0.00 | 0.00 | 0.00 | 88 | 1014.6 |
| 20260831083336 | 45 | 294 | 0.0 | 0.0 | 0.00 | 0.00 | 0.00 | 87 | 1014.6 |
| 20260831081838 | 45 | 301 | 0.0 | 1.7 | 0.00 | 0.00 | 0.00 | 87 | 1014.6 |
| 20260831080342 | 45 | 200 | 0.0 | 0.0 | 0.00 | 0.00 | 0.00 | 87 | 1014.3 |
| 20260831074851 | 46 | 200 | 0.0 | 0.0 | 0.00 | 0.00 | 0.00 | 86 | 1014.5 |
| 20260831073333 | 47 | 200 | 0.0 | 0.0 | 0.00 | 0.00 | 0.00 | 85 | 1014.5 |
| 20260831071828 | 47 | 200 | 0.0 | 0.0 | 0.00 | 0.00 | 0.00 | 85 | 1014.5 |
| 20260831070414 | 48 | 196 | 0.0 | 0.0 | 0.00 | 0.00 | 0.00 | 84 | 1014.3 |
| 20260831064829 | 48 | 196 | 0.0 | 0.0 | 0.00 | 0.00 | 0.00 | 83 | 1014.5 |
| 20260831063337 | 49 | 196 | 0.0 | 0.0 | 0.00 | 0.00 | 0.00 | 83 | 1014.4 |
| 20260831061839 | 49 | 196 | 0.0 | 0.9 | 0.00 | 0.00 | 0.00 | 83 | 1014.6 |
| 20260831060350 | 49 | 223 | 0.0 | 0.0 | 0.00 | 0.00 | 0.00 | 82 | 1014.5 |
| 20260831054840 | 50 | 147 | 0.0 | 0.0 | 0.00 | 0.00 | 0.00 | 81 | 1014.7 |
| 20260831053402 | 50 | 188 | 0.0 | 1.7 | 0.00 | 0.00 | 0.00 | 80 | 1014.8 |
| 20260831051838 | 51 | 307 | 0.0 | 0.0 | 0.00 | 0.00 | 0.00 | 80 | 1014.8 |
| 20260831050333 | 51 | 272 | 0.0 | 0.0 | 0.00 | 0.00 | 0.00 | 78 | 1014.8 |
| 20260831044919 | 52 | 163 | 0.0 | 0.0 | 0.00 | 0.00 | 0.00 | 77 | 1015.0 |
| 20260831043401 | 53 | 163 | 0.0 | 0.0 | 0.00 | 0.00 | 0.00 | 76 | 1015.0 |
| 20260831041903 | 54 | 213 | 0.0 | 0.0 | 0.00 | 0.00 | 0.00 | 74 | 1015.1 |
| 20260831040330 | 54 | 286 | 0.0 | 0.0 | 0.00 | 0.00 | 0.00 | 72 | 1015.0 |
| 20260831034900 | 55 | 315 | 0.0 | 0.0 | 0.00 | 0.00 | 0.00 | 70 | 1015.0 |
| 20260831033327 | 56 | 315 | 0.0 | 0.0 | 0.00 | 0.00 | 0.00 | 70 | 1015.0 |
| 20260831031852 | 57 | 315 | 0.0 | 0.0 | 0.00 | 0.00 | 0.00 | 69 | 1015.1 |
| 20260831030336 | 57 | 315 | 0.0 | 0.0 | 0.00 | 0.00 | 0.00 | 68 | 1014.8 |
| 20260831024837 | 58 | 315 | 0.0 | 0.0 | 0.00 | 0.00 | 0.00 | 66 | 1014.7 |
| 20260831023358 | 59 | 315 | 0.0 | 0.0 | 0.00 | 0.00 | 0.00 | 65 | 1014.4 |
| 20260831021859 | 60 | 315 | 0.0 | 0.0 | 0.00 | 0.00 | 0.00 | 63 | 1014.2 |
| 20260831020334 | 61 | 315 | 0.0 | 0.0 | 0.00 | 0.00 | 0.00 | 61 | 1014.1 |
| 20260831014839 | 62 | 315 | 0.0 | 0.0 | 0.00 | 0.00 | 0.00 | 60 | 1013.9 |
| 20260831013327 | 62 | 333 | 0.0 | 1.7 | 0.00 | 0.00 | 0.00 | 58 | 1013.9 |
| 20260831011841 | 63 | 355 | 0.0 | 1.7 | 0.00 | 0.00 | 0.00 | 58 | 1013.7 |
| 20260831010353 | 64 | 9 | 0.0 | 1.7 | 0.00 | 0.00 | 0.00 | 56 | 1013.6 |
| 20260831004840 | 65 | 325 | 0.0 | 1.7 | 0.00 | 0.00 | 0.00 | 55 | 1013.6 |
| 20260831003354 | 65 | 321 | 0.9 | 2.6 | 0.00 | 0.00 | 0.00 | 54 | 1013.5 |
| 20260831001835 | 66 | 310 | 0.0 | 2.6 | 0.00 | 0.00 | 0.00 | 52 | 1013.4 |
| 20260831000340 | 68 | 9 | 0.0 | 2.6 | 0.00 | 0.00 | 0.00 | 48 | 1013.2 |
| 20260830234828 | 67 | 355 | 0.0 | 2.6 | 0.00 | 0.00 | 0.00 | 48 | 1013.1 |
| 20260830233341 | 68 | 43 | 0.0 | 3.5 | 0.00 | 0.00 | 0.00 | 48 | 1013.0 |
| 20260830231836 | 69 | 300 | 0.0 | 5.2 | 0.00 | 0.00 | 0.00 | 46 | 1012.9 |
| 20260830230351 | 71 | 15 | 0.0 | 1.7 | 0.00 | 0.00 | 0.00 | 45 | 1012.7 |
| 20260830224856 | 71 | 271 | 0.0 | 5.2 | 0.00 | 0.00 | 0.00 | 46 | 1012.5 |
| 20260830223331 | 72 | 9 | 0.0 | 8.7 | 0.00 | 0.00 | 0.00 | 47 | 1012.4 |
| 20260830221909 | 73 | 33 | 0.9 | 4.3 | 0.00 | 0.00 | 0.00 | 50 | 1012.5 |
| 20260830220342 | 72 | 231 | 0.0 | 1.7 | 0.00 | 0.00 | 0.00 | 49 | 1012.4 |
| 20260830214857 | 70 | 256 | 0.0 | 2.6 | 0.00 | 0.00 | 0.00 | 51 | 1012.4 |
| 20260830213346 | 69 | 130 | 0.0 | 1.7 | 0.00 | 0.00 | 0.00 | 51 | 1012.4 |